Location: Allos
(44.2333°N, 6.6333°E)
Time: 18:20:47
(UTC+00:00)

Cosmos 1869 Rocket - Pass Details

Date: 01 December 2020
Orbit: 604 x 634 km, 82.5° (Epoch: 22 January)

Event Time Altitude Azimuth Distance (km) Brightness Sun altitude
Rises 18:11:50 0° 351° (N) 2,942 7.1 -23.7°
Reaches altitude 10° 18:14:05 10° 351° (N) 2,028 6.2 -24.1°
Enters shadow 18:18:01 68° 344° (NNW) 686 3.7 -24.8°
Exits shadow 18:22:42 12° 174° (S) 1,866 6.0 -25.6°
Drops below altitude 10° 18:23:02 10° 174° (S) 2,000 6.2 -25.7°
Sets 18:25:15 0° 174° (S) 2,898 7.0 -26.1°
